Regional Weather Roundup
Issued by NWS

Home | Current Version | Previous Version | Graphics & Text | Print | Product List | Glossary On
Versions: 1 2 3 4 5 6 7 8 9 10 11 12 13 14 15 16 17 18 19 20 21 22 23 24 25 26 27 28 29 30 31 32 33 34 35 36 37 38 39 40 41 42 43 44 45 46 47 48 49 50
000
ASUS43 KIND 280609
RWRIN

WEATHER ROUNDUP FOR INDIANA
NATIONAL WEATHER SERVICE INDIANAPOLIS IN
200 AM EDT SUN AUG 28 2016

NOTE: "FAIR" INDICATES FEW OR NO CLOUDS BELOW 12,000 FEET WITH NO
SIGNIFICANT WEATHER AND/OR OBSTRUCTIONS TO VISIBILITY.

* - STATION DOES NOT REPORT WEATHER SUCH AS PRECIPITATION OR FOG.

+ - STATION NOT QUALITY CONTROLLED BY THE NATIONAL WEATHER SERVICE.
    USE DATA WITH CAUTION...ESPECIALLY DEWPOINT AND RELATIVE
    HUMIDITY OBSERVATIONS.

INZ001>003-010>013-019-020-280700-
NORTHWEST INDIANA

CITY           SKY/WX    TMP DP  RH WIND       PRES   REMARKS
GARY /AIRPORT/ FAIR      77  75  93 W3        30.11R
KNOX *+        FAIR      72  59  64 S5        30.12S
LA PORTE +     FAIR     N/A N/A N/A SW3       30.12S
MICHIGAN CITY+ FAIR      73  73 100 MISG      30.11R
MONTICELLO +   CLEAR     73  69  87 CALM      30.12S
6HR MIN TEMP:  72; 6HR MAX TEMP:  82;

RENSSELAER +   PTCLDY    72  70  94 CALM      30.13R
VALPARAISO     FAIR      74  72  93 S6        30.11F
6HR MIN TEMP:  74; 6HR MAX TEMP:  80; 6HR PCP: TRACE;


$$

LMZ046-743>745-280700-
SOUTHERN LAKE MICHIGAN

STATION/POSITION TIME  TEMP    WIND        PRES    WAVE
                       AIR SEA DIR/SP/G            HT
                 (UTC) (F)     (DEG/KT/KT) (MB)    (FT)
BURNS HARBOR     0502   77     200/  9/ 12 1019.3S
MICHIGAN CITY    0500   78     190/ 10/ 12   N/A
5NW MICH CITY    0600   76 76  280/  4/  4   N/A     1

$$

INZ004-005-014>016-021>024-280700-
NORTH CENTRAL INDIANA

CITY           SKY/WX    TMP DP  RH WIND       PRES   REMARKS
GOSHEN         FAIR      72  69  90 S7        30.13R
6HR MIN TEMP:  71; 6HR MAX TEMP:  79;

LOGANSPORT +   PTCLDY    70  70 100 CALM      30.14S
PERU/GRISSOM   CLOUDY    71  71 100 SW2       30.13R
6HR MIN TEMP:  71; 6HR MAX TEMP:  81;

ROCHESTER +    FAIR      77  73  88 S5        30.14R
SOUTH BEND     FAIR      74  72  93 S7        30.12R
6HR MIN TEMP:  73; 6HR MAX TEMP:  79;

WARSAW +       FAIR      72  72 100 CALM      30.14R

$$

INZ006>009-017-018-025>027-280700-
NORTHEAST INDIANA

CITY           SKY/WX    TMP DP  RH WIND       PRES   REMARKS
ANGOLA *+      CLEAR     70  63  78 CALM      30.14S
AUBURN +       FAIR      70  68  94 CALM      30.14F FOG
FORT WAYNE     PTCLDY    70  67  90 CALM      30.14S
6HR MIN TEMP:  70; 6HR MAX TEMP:  78;

HUNTINGTON +   PTCLDY    69  68  96 CALM      30.14R
6HR MIN TEMP:  69; 6HR MAX TEMP:  78;


$$

INZ028-029-035-036-043>045-051>053-280700-
WEST CENTRAL INDIANA

CITY           SKY/WX    TMP DP  RH WIND       PRES   REMARKS
CRAWFORDSVL +  PTCLDY    70  70 100 CALM      30.14R
6HR MIN TEMP:  69; 6HR MAX TEMP:  78;

GREENCASTLE +  PTCLDY    72  72 100 CALM      30.14S
LAFAYETTE      CLEAR     71  71 100 CALM      30.12R
6HR MIN TEMP:  71; 6HR MAX TEMP:  82;

TERRE HAUTE    CLEAR     73  70  90 CALM      30.12S
6HR MIN TEMP:  73; 6HR MAX TEMP:  83;


$$

INZ030>032-037>040-046>048-054>057-064-065-280700-
CENTRAL INDIANA

CITY           SKY/WX    TMP DP  RH WIND       PRES   REMARKS
INDIANAPOLIS   PTCLDY    75  73  93 CALM      30.13S
6HR MIN TEMP:  75; 6HR MAX TEMP:  81;

-EAGLE CREEK   PTCLDY    75  72  90 SE3       30.13S
6HR MIN TEMP:  74; 6HR MAX TEMP:  82;

KOKOMO *+      CLOUDY    72  70  94 SW5       30.14R
6HR MIN TEMP:  70; 6HR MAX TEMP:  79;

MARION +       PTCLDY    69  68  96 CALM      30.15R
MT COMFORT *+  CLEAR     72  70  94 CALM      30.14S
SHELBYVILLE    CLEAR     74  70  87 CALM      30.12F
6HR MIN TEMP:  73; 6HR MAX TEMP:  83;

ZIONSVILLE +   PTCLDY    68  67  99 CALM      30.15S FOG
6HR MIN TEMP:  67; 6HR MAX TEMP:  78;


$$

INZ033-034-041-042-049-050-058-059-280700-
EAST CENTRAL INDIANA

CITY           SKY/WX    TMP DP  RH WIND       PRES   REMARKS
MUNCIE         CLEAR     75  71  87 S6        30.14S
6HR MIN TEMP:  73; 6HR MAX TEMP:  81;


$$

INZ060-061-067>069-081>083-085>088-280700-
SOUTHWEST INDIANA

CITY           SKY/WX    TMP DP  RH WIND       PRES   REMARKS
EVANSVILLE     PTCLDY    78  74  87 CALM      30.11S
6HR MIN TEMP:  77; 6HR MAX TEMP:  89;

HUNTINGBURG *+ PTCLDY    75  72  88 E5        30.12S
6HR MIN TEMP:  75; 6HR MAX TEMP:  86;

WASHINGTON +   PTCLDY    73  73 100 MISG      30.12S
6HR MIN TEMP:  73; 6HR MAX TEMP:  84;


$$

INZ062-063-066-070>080-084-089>092-280700-
SOUTH CENTRAL AND SOUTHEAST INDIANA

CITY           SKY/WX    TMP DP  RH WIND       PRES   REMARKS
BLOOMINGTON    CLOUDY    76  73  91 SE6       30.13F
6HR MIN TEMP:  73; 6HR MAX TEMP:  83;

MADISON *+     CLEAR     72  70  94 CALM      30.16S

$$





USA.gov is the U.S. government's official web portal to all federal, state and local government web resources and services.